TimeCDT,TemperatureF,Dew PointF,Humidity,Sea Level PressureIn,VisibilityMPH,Wind Direction,Wind SpeedMPH,Gust SpeedMPH,PrecipitationIn,Events,Conditions,WindDirDegrees,DateUTC
12:53 AM,39.0,37.0,93,30.22,8.0,Calm,Calm,-,N/A,,Clear,0,2012-10-06 05:53:00
1:53 AM,39.0,37.0,93,30.24,8.0,Calm,Calm,-,N/A,,Clear,0,2012-10-06 06:53:00
2:53 AM,37.9,37.0,97,30.23,8.0,Calm,Calm,-,N/A,,Clear,0,2012-10-06 07:53:00
3:53 AM,37.9,36.0,93,30.23,9.0,Calm,Calm,-,N/A,,Clear,0,2012-10-06 08:53:00
4:53 AM,36.0,35.1,97,30.25,9.0,Calm,Calm,-,N/A,,Clear,0,2012-10-06 09:53:00
5:53 AM,37.0,34.0,89,30.25,10.0,Calm,Calm,-,N/A,,Clear,0,2012-10-06 10:53:00
6:53 AM,37.0,35.1,93,30.27,10.0,Calm,Calm,-,N/A,,Clear,0,2012-10-06 11:53:00
7:53 AM,39.0,37.0,93,30.26,10.0,Calm,Calm,-,N/A,,Scattered Clouds,0,2012-10-06 12:53:00
8:53 AM,41.0,37.0,86,30.25,10.0,Calm,Calm,-,N/A,,Partly Cloudy,0,2012-10-06 13:53:00
9:53 AM,45.0,36.0,71,30.24,10.0,Variable,5.8,-,N/A,,Scattered Clouds,0,2012-10-06 14:53:00
10:53 AM,48.0,33.1,56,30.26,10.0,NNE,4.6,-,0.00,,Scattered Clouds,30,2012-10-06 15:53:00
11:53 AM,48.0,34.0,58,30.27,10.0,Calm,Calm,-,N/A,,Overcast,0,2012-10-06 16:53:00
12:53 PM,48.9,34.0,56,30.26,10.0,North,4.6,-,0.00,,Scattered Clouds,350,2012-10-06 17:53:00
1:53 PM,48.9,34.0,56,30.22,10.0,Variable,4.6,-,N/A,,Overcast,0,2012-10-06 18:53:00
2:53 PM,51.1,33.1,50,30.23,10.0,Variable,4.6,-,N/A,,Overcast,0,2012-10-06 19:53:00
3:53 PM,48.9,33.1,54,30.21,10.0,Variable,4.6,-,N/A,,Overcast,0,2012-10-06 20:53:00
4:53 PM,48.9,32.0,52,30.20,10.0,Variable,4.6,-,N/A,,Overcast,0,2012-10-06 21:53:00
5:53 PM,48.0,32.0,54,30.23,10.0,NNW,4.6,-,N/A,,Overcast,340,2012-10-06 22:53:00
6:53 PM,45.0,34.0,65,30.22,10.0,North,3.5,-,0.00,Rain,Light Rain,10,2012-10-06 23:53:00
7:53 PM,43.0,35.1,74,30.25,10.0,Variable,3.5,-,0.00,,Overcast,0,2012-10-07 00:53:00
8:53 PM,42.1,37.0,82,30.26,10.0,NW,3.5,-,N/A,,Overcast,320,2012-10-07 01:53:00
9:53 PM,42.1,36.0,79,30.26,10.0,Calm,Calm,-,N/A,,Overcast,0,2012-10-07 02:53:00
10:53 PM,41.0,37.0,86,30.27,10.0,Calm,Calm,-,0.00,,Overcast,0,2012-10-07 03:53:00
11:53 PM,42.1,37.0,82,30.26,10.0,Variable,4.6,-,N/A,,Overcast,0,2012-10-07 04:53:00